Time,TemperatureF,DewpointF,PressureIn,WindDirection,WindDirectionDegrees,WindSpeedMPH,WindSpeedGustMPH,Humidity,HourlyPrecipIn,Conditions,Clouds,dailyrainin,SoftwareType,DateUTC
2013-06-30 00:02:00,82.0,-99.9,29.78,South,169,12.0,18.0,-999,-99.99,,,-99.99,,2013-06-30 05:02:00,
2013-06-30 00:12:00,82.0,-99.9,29.78,SSE,167,13.0,17.0,-999,-99.99,,,-99.99,,2013-06-30 05:12:00,
2013-06-30 00:34:00,82.0,-99.9,29.78,SSE,168,12.0,17.0,-999,-99.99,,,-99.99,,2013-06-30 05:34:00,
2013-06-30 00:53:00,81.0,-99.9,29.78,South,176,11.0,15.0,-999,-99.99,,,-99.99,,2013-06-30 05:53:00,
2013-06-30 01:02:00,81.0,-99.9,29.78,South,175,12.0,15.0,-999,-99.99,,,-99.99,,2013-06-30 06:02:00,
2013-06-30 01:12:00,81.0,-99.9,29.78,South,179,11.0,13.0,-999,-99.99,,,-99.99,,2013-06-30 06:12:00,
2013-06-30 01:34:00,81.0,-99.9,29.78,South,179,11.0,14.0,-999,-99.99,,,-99.99,,2013-06-30 06:34:00,
2013-06-30 01:43:00,81.0,-99.9,29.77,South,181,11.0,14.0,-999,-99.99,,,-99.99,,2013-06-30 06:43:00,
2013-06-30 01:53:00,81.0,-99.9,29.77,South,177,10.0,15.0,-999,-99.99,,,-99.99,,2013-06-30 06:53:00,
2013-06-30 02:02:00,81.0,-99.9,29.77,South,178,10.0,13.0,-999,-99.99,,,-99.99,,2013-06-30 07:02:00,
2013-06-30 02:12:00,80.0,-99.9,29.77,South,176,10.0,13.0,-999,-99.99,,,-99.99,,2013-06-30 07:12:00,
2013-06-30 02:33:00,80.0,-99.9,29.78,South,177,10.0,15.0,-999,-99.99,,,-99.99,,2013-06-30 07:33:00,
2013-06-30 02:44:00,80.0,-99.9,29.78,South,177,11.0,13.0,-999,-99.99,,,-99.99,,2013-06-30 07:44:00,
2013-06-30 02:53:00,80.0,-99.9,29.78,South,177,10.0,13.0,-999,-99.99,,,-99.99,,2013-06-30 07:53:00,
2013-06-30 03:02:00,80.0,-99.9,29.78,South,175,11.0,13.0,-999,-99.99,,,-99.99,,2013-06-30 08:02:00,
2013-06-30 03:12:00,80.0,-99.9,29.77,South,175,11.0,13.0,-999,-99.99,,,-99.99,,2013-06-30 08:12:00,
2013-06-30 03:34:00,80.0,-99.9,29.77,South,179,11.0,15.0,-999,-99.99,,,-99.99,,2013-06-30 08:34:00,
2013-06-30 03:42:00,80.0,-99.9,29.77,South,177,12.0,14.0,-999,-99.99,,,-99.99,,2013-06-30 08:42:00,
2013-06-30 03:53:00,80.0,-99.9,29.77,South,176,11.0,13.0,-999,-99.99,,,-99.99,,2013-06-30 08:53:00,
2013-06-30 04:02:00,80.0,-99.9,29.77,South,186,11.0,12.0,-999,-99.99,,,-99.99,,2013-06-30 09:02:00,
2013-06-30 04:12:00,80.0,-99.9,29.77,South,187,10.0,13.0,-999,-99.99,,,-99.99,,2013-06-30 09:12:00,
2013-06-30 04:34:00,80.0,-99.9,29.76,South,184,10.0,12.0,-999,-99.99,,,-99.99,,2013-06-30 09:34:00,
2013-06-30 04:43:00,80.0,-99.9,29.76,South,183,9.0,11.0,-999,-99.99,,,-99.99,,2013-06-30 09:43:00,
2013-06-30 04:53:00,80.0,-99.9,29.76,South,185,8.0,11.0,-999,-99.99,,,-99.99,,2013-06-30 09:53:00,
2013-06-30 05:02:00,80.0,-99.9,29.76,South,186,9.0,9.0,-999,-99.99,,,-99.99,,2013-06-30 10:02:00,
2013-06-30 05:11:00,80.0,-99.9,29.76,South,184,7.0,10.0,-999,-99.99,,,-99.99,,2013-06-30 10:11:00,
2013-06-30 05:34:00,80.0,-99.9,29.76,SSW,194,9.0,11.0,-999,-99.99,,,-99.99,,2013-06-30 10:34:00,
2013-06-30 05:43:00,80.0,-99.9,29.76,SSW,197,7.0,11.0,-999,-99.99,,,-99.99,,2013-06-30 10:43:00,
2013-06-30 05:53:00,81.0,-99.9,29.76,SSW,200,10.0,12.0,-999,-99.99,,,-99.99,,2013-06-30 10:53:00,
2013-06-30 06:02:00,81.0,-99.9,29.77,SSW,193,8.0,11.0,-999,-99.99,,,-99.99,,2013-06-30 11:02:00,
2013-06-30 06:11:00,81.0,-99.9,29.77,SSW,199,7.0,8.0,-999,-99.99,,,-99.99,,2013-06-30 11:11:00,
2013-06-30 06:33:00,80.0,-99.9,29.78,SSE,156,5.0,6.0,-999,-99.99,,,-99.99,,2013-06-30 11:33:00,
2013-06-30 06:43:00,80.0,-99.9,29.79,South,172,4.0,6.0,-999,-99.99,,,-99.99,,2013-06-30 11:43:00,
2013-06-30 06:53:00,80.0,-99.9,29.80,South,169,4.0,5.0,-999,-99.99,,,-99.99,,2013-06-30 11:53:00,
2013-06-30 07:02:00,80.0,-99.9,29.82,SE,132,2.0,5.0,-999,-99.99,,,-99.99,,2013-06-30 12:02:00,
2013-06-30 07:12:00,80.0,-99.9,29.86,NNE,15,17.0,23.0,-999,-99.99,,,-99.99,,2013-06-30 12:12:00,
2013-06-30 07:33:00,73.0,-99.9,29.91,North,356,38.0,46.0,-999,-99.99,,,-99.99,,2013-06-30 12:33:00,
2013-06-30 07:43:00,72.0,-99.9,29.94,NNW,336,32.0,46.0,-999,-99.99,,,-99.99,,2013-06-30 12:43:00,
2013-06-30 07:52:00,73.0,-99.9,29.91,NW,318,19.0,23.0,-999,-99.99,,,-99.99,,2013-06-30 12:52:00,
2013-06-30 08:02:00,74.0,-99.9,29.89,NW,310,20.0,24.0,-999,-99.99,,,-99.99,,2013-06-30 13:02:00,
2013-06-30 08:12:00,74.0,-99.9,29.89,NW,308,21.0,27.0,-999,-99.99,,,-99.99,,2013-06-30 13:12:00,
2013-06-30 08:34:00,76.0,-99.9,29.89,WNW,301,16.0,18.0,-999,-99.99,,,-99.99,,2013-06-30 13:34:00,
2013-06-30 08:44:00,76.0,-99.9,29.89,WNW,288,10.0,17.0,-999,-99.99,,,-99.99,,2013-06-30 13:44:00,
2013-06-30 08:53:00,76.0,-99.9,29.89,WNW,295,13.0,16.0,-999,-99.99,,,-99.99,,2013-06-30 13:53:00,
2013-06-30 09:02:00,76.0,-99.9,29.89,WNW,292,16.0,18.0,-999,-99.99,,,-99.99,,2013-06-30 14:02:00,
2013-06-30 09:11:00,76.0,-99.9,29.88,West,263,10.0,15.0,-999,-99.99,,,-99.99,,2013-06-30 14:11:00,
2013-06-30 09:33:00,77.0,-99.9,29.87,WSW,251,13.0,16.0,-999,-99.99,,,-99.99,,2013-06-30 14:33:00,
2013-06-30 09:44:00,77.0,-99.9,29.87,WSW,245,13.0,17.0,-999,-99.99,,,-99.99,,2013-06-30 14:44:00,
2013-06-30 09:52:00,76.0,-99.9,29.86,SW,227,15.0,19.0,-999,-99.99,,,-99.99,,2013-06-30 14:52:00,
2013-06-30 10:02:00,76.0,-99.9,29.85,SSW,211,19.0,22.0,-999,-99.99,,,-99.99,,2013-06-30 15:02:00,
2013-06-30 10:35:00,77.0,-99.9,29.85,SSW,210,17.0,20.0,-999,-99.99,,,-99.99,,2013-06-30 15:35:00,
2013-06-30 10:44:00,77.0,-99.9,29.85,SSW,210,17.0,20.0,-999,-99.99,,,-99.99,,2013-06-30 15:44:00,
2013-06-30 10:53:00,77.0,-99.9,29.84,SSW,213,19.0,24.0,-999,-99.99,,,-99.99,,2013-06-30 15:53:00,
2013-06-30 11:01:00,77.0,-99.9,29.84,SSW,213,19.0,24.0,-999,-99.99,,,-99.99,,2013-06-30 16:01:00,
2013-06-30 11:11:00,77.0,-99.9,29.84,SSW,213,19.0,24.0,-999,-99.99,,,-99.99,,2013-06-30 16:11:00,
2013-06-30 11:44:00,81.0,-99.9,29.86,North,349,11.0,15.0,-999,-99.99,,,-99.99,,2013-06-30 16:44:00,
2013-06-30 11:53:00,80.0,-99.9,29.87,NNW,346,12.0,15.0,-999,-99.99,,,-99.99,,2013-06-30 16:53:00,
2013-06-30 12:02:00,81.0,-99.9,29.88,NNW,337,16.0,18.0,-999,-99.99,,,-99.99,,2013-06-30 17:02:00,
2013-06-30 12:12:00,82.0,-99.9,29.88,NNW,338,17.0,19.0,-999,-99.99,,,-99.99,,2013-06-30 17:12:00,
2013-06-30 12:34:00,81.0,-99.9,29.90,NW,317,31.0,36.0,-999,-99.99,,,-99.99,,2013-06-30 17:34:00,
2013-06-30 12:43:00,81.0,-99.9,29.90,NW,318,31.0,36.0,-999,-99.99,,,-99.99,,2013-06-30 17:43:00,
2013-06-30 12:53:00,81.0,-99.9,29.90,NW,314,32.0,38.0,-999,-99.99,,,-99.99,,2013-06-30 17:53:00,
2013-06-30 13:02:00,80.0,-99.9,29.89,NW,318,35.0,41.0,-999,-99.99,,,-99.99,,2013-06-30 18:02:00,
2013-06-30 13:12:00,79.0,-99.9,29.89,NW,315,36.0,46.0,-999,-99.99,,,-99.99,,2013-06-30 18:12:00,
2013-06-30 13:34:00,79.0,-99.9,29.89,NW,312,33.0,38.0,-999,-99.99,,,-99.99,,2013-06-30 18:34:00,
2013-06-30 13:43:00,79.0,-99.9,29.89,NW,315,30.0,37.0,-999,-99.99,,,-99.99,,2013-06-30 18:43:00,
2013-06-30 13:53:00,78.0,-99.9,29.88,NW,317,30.0,35.0,-999,-99.99,,,-99.99,,2013-06-30 18:53:00,
2013-06-30 14:01:00,79.0,-99.9,29.87,NW,315,27.0,30.0,-999,-99.99,,,-99.99,,2013-06-30 19:01:00,
2013-06-30 14:12:00,80.0,-99.9,29.86,NW,308,22.0,26.0,-999,-99.99,,,-99.99,,2013-06-30 19:12:00,
2013-06-30 14:33:00,81.0,-99.9,29.85,NW,312,23.0,27.0,-999,-99.99,,,-99.99,,2013-06-30 19:33:00,
2013-06-30 14:43:00,81.0,-99.9,29.85,NW,316,19.0,24.0,-999,-99.99,,,-99.99,,2013-06-30 19:43:00,
2013-06-30 14:53:00,81.0,-99.9,29.84,NW,313,19.0,22.0,-999,-99.99,,,-99.99,,2013-06-30 19:53:00,
2013-06-30 15:02:00,81.0,-99.9,29.83,NW,316,16.0,20.0,-999,-99.99,,,-99.99,,2013-06-30 20:02:00,
2013-06-30 15:12:00,81.0,-99.9,29.83,NNW,331,13.0,15.0,-999,-99.99,,,-99.99,,2013-06-30 20:12:00,
2013-06-30 15:34:00,81.0,-99.9,29.83,NNW,343,12.0,15.0,-999,-99.99,,,-99.99,,2013-06-30 20:34:00,
2013-06-30 15:42:00,81.0,-99.9,29.82,NNW,346,11.0,14.0,-999,-99.99,,,-99.99,,2013-06-30 20:42:00,
2013-06-30 15:52:00,82.0,-99.9,29.82,North,4,9.0,12.0,-999,-99.99,,,-99.99,,2013-06-30 20:52:00,
2013-06-30 16:01:00,82.0,-99.9,29.82,NNE,17,10.0,12.0,-999,-99.99,,,-99.99,,2013-06-30 21:01:00,
2013-06-30 16:34:00,82.0,-99.9,29.83,NNW,344,6.0,8.0,-999,-99.99,,,-99.99,,2013-06-30 21:34:00,
2013-06-30 16:43:00,82.0,-99.9,29.84,NNW,342,6.0,7.0,-999,-99.99,,,-99.99,,2013-06-30 21:43:00,
2013-06-30 16:53:00,82.0,-99.9,29.84,NW,321,4.0,7.0,-999,-99.99,,,-99.99,,2013-06-30 21:53:00,
2013-06-30 17:01:00,83.0,-99.9,29.84,WNW,294,6.0,8.0,-999,-99.99,,,-99.99,,2013-06-30 22:01:00,
2013-06-30 17:11:00,83.0,-99.9,29.84,WNW,294,4.0,7.0,-999,-99.99,,,-99.99,,2013-06-30 22:11:00,
2013-06-30 17:34:00,84.0,-99.9,29.83,WSW,245,4.0,5.0,-999,-99.99,,,-99.99,,2013-06-30 22:34:00,
2013-06-30 17:43:00,83.0,-99.9,29.83,SW,229,4.0,5.0,-999,-99.99,,,-99.99,,2013-06-30 22:43:00,
2013-06-30 17:53:00,83.0,-99.9,29.83,SSW,213,3.0,4.0,-999,-99.99,,,-99.99,,2013-06-30 22:53:00,
2013-06-30 18:02:00,83.0,-99.9,29.83,SW,228,5.0,6.0,-999,-99.99,,,-99.99,,2013-06-30 23:02:00,
2013-06-30 18:11:00,83.0,-99.9,29.83,SW,231,4.0,6.0,-999,-99.99,,,-99.99,,2013-06-30 23:11:00,
2013-06-30 18:33:00,84.0,-99.9,29.83,WSW,251,5.0,6.0,-999,-99.99,,,-99.99,,2013-06-30 23:33:00,
2013-06-30 18:44:00,84.0,-99.9,29.83,WSW,249,5.0,7.0,-999,-99.99,,,-99.99,,2013-06-30 23:44:00,
2013-06-30 18:53:00,84.0,-99.9,29.83,WSW,250,6.0,7.0,-999,-99.99,,,-99.99,,2013-06-30 23:53:00,
2013-06-30 19:01:00,84.0,-99.9,29.83,WSW,258,4.0,5.0,-999,-99.99,,,-99.99,,2013-07-01 00:01:00,
2013-06-30 19:11:00,84.0,-99.9,29.83,West,259,3.0,5.0,-999,-99.99,,,-99.99,,2013-07-01 00:11:00,
2013-06-30 19:33:00,85.0,-99.9,29.82,WSW,246,4.0,5.0,-999,-99.99,,,-99.99,,2013-07-01 00:33:00,
2013-06-30 19:42:00,85.0,-99.9,29.82,West,262,2.0,4.0,-999,-99.99,,,-99.99,,2013-07-01 00:42:00,
2013-06-30 19:52:00,85.0,-99.9,29.81,WNW,293,9.0,10.0,-999,-99.99,,,-99.99,,2013-07-01 00:52:00,
2013-06-30 20:01:00,84.0,-99.9,29.81,NW,318,11.0,12.0,-999,-99.99,,,-99.99,,2013-07-01 01:01:00,
2013-06-30 20:12:00,84.0,-99.9,29.81,NW,310,11.0,13.0,-999,-99.99,,,-99.99,,2013-07-01 01:12:00,
2013-06-30 20:34:00,84.0,-99.9,29.82,NW,308,9.0,11.0,-999,-99.99,,,-99.99,,2013-07-01 01:34:00,
2013-06-30 20:43:00,84.0,-99.9,29.82,NW,309,9.0,10.0,-999,-99.99,,,-99.99,,2013-07-01 01:43:00,
2013-06-30 20:52:00,84.0,-99.9,29.83,NW,312,10.0,11.0,-999,-99.99,,,-99.99,,2013-07-01 01:52:00,
2013-06-30 21:02:00,84.0,-99.9,29.83,NW,308,10.0,11.0,-999,-99.99,,,-99.99,,2013-07-01 02:02:00,
2013-06-30 21:12:00,83.0,-99.9,29.83,NW,309,9.0,11.0,-999,-99.99,,,-99.99,,2013-07-01 02:12:00,
2013-06-30 21:33:00,83.0,-99.9,29.83,NW,311,8.0,9.0,-999,-99.99,,,-99.99,,2013-07-01 02:33:00,
2013-06-30 21:44:00,82.0,-99.9,29.83,NW,307,6.0,8.0,-999,-99.99,,,-99.99,,2013-07-01 02:44:00,
2013-06-30 21:54:00,82.0,-99.9,29.83,WNW,303,6.0,7.0,-999,-99.99,,,-99.99,,2013-07-01 02:54:00,
2013-06-30 22:02:00,82.0,-99.9,29.83,NW,314,5.0,6.0,-999,-99.99,,,-99.99,,2013-07-01 03:02:00,
2013-06-30 22:23:00,82.0,-99.9,29.83,NW,319,7.0,8.0,-999,-99.99,,,-99.99,,2013-07-01 03:23:00,
2013-06-30 22:33:00,82.0,-99.9,29.83,NNW,329,5.0,7.0,-999,-99.99,,,-99.99,,2013-07-01 03:33:00,
2013-06-30 22:53:00,82.0,-99.9,29.83,NW,306,4.0,5.0,-999,-99.99,,,-99.99,,2013-07-01 03:53:00,
2013-06-30 23:01:00,82.0,-99.9,29.83,WNW,296,5.0,5.0,-999,-99.99,,,-99.99,,2013-07-01 04:01:00,
2013-06-30 23:11:00,82.0,-99.9,29.84,West,275,4.0,6.0,-999,-99.99,,,-99.99,,2013-07-01 04:11:00,
2013-06-30 23:22:00,82.0,-99.9,29.84,West,275,4.0,6.0,-999,-99.99,,,-99.99,,2013-07-01 04:22:00,
2013-06-30 23:32:00,81.0,-99.9,29.84,WSW,251,4.0,6.0,-999,-99.99,,,-99.99,,2013-07-01 04:32:00,
2013-06-30 23:43:00,81.0,-99.9,29.84,West,263,3.0,4.0,-999,-99.99,,,-99.99,,2013-07-01 04:43:00,
2013-06-30 23:53:00,81.0,-99.9,29.84,WSW,252,4.0,5.0,-999,-99.99,,,-99.99,,2013-07-01 04:53:00,